This is the latest recevied weather packets stored in our database for station/object YN9ZMM-13. If no packets are shown the sender has not sent any weather packets the latest 1 day(s).
| Time | Temp. | Humidity | Pressure | Rain* | Wind** | Luminosity | Snow |
|---|---|---|---|---|---|---|---|
| 1778048634 | 20.56° C | 81% | 1014 hPa | 0 mm | - | - | - |
| 1778048034 | 20° C | 81% | 1014 hPa | 0 mm | - | - | - |
| 1778047433 | 21.67° C | 83% | 1014 hPa | 0 mm | - | - | - |
| 1778046833 | 21.11° C | 83% | 1014 hPa | 0 mm | - | - | - |
| 1778045632 | 22.22° C | 78% | 1014 hPa | 0 mm | - | - | - |
| 1778045032 | 21.67° C | 78% | 1014 hPa | 0 mm | - | - | - |
| 1778043831 | 20.56° C | 78% | 1014 hPa | 0 mm | - | - | - |
| 1778043231 | 20° C | 78% | 1014 hPa | 0 mm | - | - | - |
| 1778042030 | 22.78° C | 76% | 1014 hPa | 0 mm | - | - | - |
| 1778041430 | 22.22° C | 76% | 1014 hPa | 0 mm | - | - | - |
| 1778040229 | 21.11° C | 76% | 1014 hPa | 0 mm | - | - | - |
| 1778039028 | 23.33° C | 72% | 1014 hPa | 0 mm | - | - | - |
| 1778038428 | 23.33° C | 72% | 1014 hPa | 0 mm | - | - | - |
| 1778037227 | 22.22° C | 72% | 1014 hPa | 0 mm | - | - | - |
| 1778036627 | 21.67° C | 72% | 1014 hPa | 0 mm | - | - | - |
| 1778036026 | 21.67° C | 72% | 1014 hPa | 0 mm | - | - | - |
| 1778035426 | 23.33° C | 67% | 1014 hPa | 0 mm | - | - | - |
| 1778034826 | 22.78° C | 67% | 1014 hPa | 0 mm | - | - | - |
| 1778034226 | 22.22° C | 67% | 1013 hPa | 0 mm | - | - | - |
| 1778033025 | 21.11° C | 67% | 1013 hPa | 0 mm | - | - | - |
| 1778032425 | 23.89° C | 62% | 1013 hPa | 0 mm | - | - | - |
| 1778031224 | 23.33° C | 62% | 1013 hPa | 0 mm | - | - | - |
| 1778030624 | 22.78° C | 62% | 1012 hPa | 0 mm | - | - | - |
| 1778030024 | 25° C | 66% | 1012 hPa | 0 mm | - | - | - |
| 1778029423 | 24.44° C | 66% | 1012 hPa | 0 mm | - | - | - |
* Rain latest hour (hover to see other rain measurements)
** Current wind speed in m/s (hover to see current wind gust speed)